x

Yucatan Basin - 120 Nm Ese Of Cozumel, Mx (42056) Wave Buoy

4:50pm - Thu 28th Aug 2014 All times are CDT. -5 hours from GMT.

  • Sig Wave height 4.9ft
  • Swell Direction
  • Peak Period 7s
  • Average Period 5s
  • Wind
    18mph, 20mph gusts
  • Sea Temp 86°f
  • Air Temp 86°f
  • Sea Pressure 1010.7mb
  •  Yucatan Basin - 120 Nm Ese Of Cozumel, Mx
  •  Yucatan Basin - 120 Nm Ese Of Cozumel, Mx

More Historic Weather Station data

Upgrade to MSW Pro to gain access to the past 30 days of data for over 8000 Wavebouys and Weather Stations around the globe.

Join Pro

Comparision Forecast

View Surf forecast
   
Thu 08/28 4:50pm 5ft 7s 5s 18 20 mph 1010.7mb 86f 86f
3:50pm 4.5ft 7s 5s 16 18 mph 1011mb 86f 85f
2:50pm 4.5ft 6s 5s 13 18 mph 1011.5mb 86f 85f
1:50pm 4.5ft 6s 5s 13 20 mph 1011.7mb 86f 85f
12:50pm 4.5ft 6s 5s 16 20 mph 1012mb 86f 86f
11:50am 4.5ft 6s 5s 16 20 mph 1012.6mb 86f 86f
10:50am 4ft 5s 5s 16 18 mph 1012.6mb 86f 85f
9:50am 3.5ft 5s 4s 18 20 mph 1012.5mb 86f 85f
8:50am 2.5ft 5s 4s 18 22 mph 1012.1mb 86f 85f
7:50am 2.5ft 4s 4s 13 16 mph 1012mb 86f 84f
6:50am 2ft 8s 4s 13 16 mph 1011.6mb 86f 85f
5:50am 1.6ft 4s 4s 13 16 mph 1011.3mb 86f 85f
4:50am 1.6ft 8s 4s 11 13 mph 1010.7mb 86f 85f
3:50am 2ft 8s 4s 7 9 mph 1010.4mb 86f 84f
2:50am 2ft 4s 4s 11 13 mph 1010.9mb 86f 84f
1:50am 2ft 4s 4s 16 18 mph 1011.9mb 86f 84f
12:50am 1.6ft 7s 4s 13 16 mph 1012.6mb 86f 85f
Wed 08/27 11:50pm 1.6ft 8s 4s 16 18 mph 1012.5mb 86f 84f
10:50pm 1.3ft 8s 4s 11 13 mph 1013.1mb 86f 85f
9:50pm 1.3ft 8s 5s 11 13 mph 1012.8mb 86f 85f
7:50pm 1.6ft 8s 4s 9 11 mph 1012mb 86f 85f
6:50pm 1.6ft 8s 4s 9
mph
1011.1mb 87f 85f
5:50pm 1.6ft 7s 4s 9 11 mph 1010.6mb 87f 86f
4:50pm 1.6ft 8s 4s 9 11 mph 1010.6mb 87f 86f
3:50pm 1.6ft 8s 4s 11 13 mph 1010.7mb 87f 86f
2:50pm 1.6ft 8s 4s 4 7 mph 1011mb 87f 85f
1:50pm 1.3ft 8s 4s 13 16 mph 1011.5mb 87f 84f
12:50pm 1.3ft 8s 5s 9 11 mph 1012mb 87f 86f
11:50am 1.3ft 8s 4s 7 9 mph 1012.1mb 87f 85f
10:50am 1.3ft 8s 4s 9
mph
1011.8mb 86f 85f
9:50am 1.3ft 8s 4s 7 9 mph 1011.3mb 86f 85f
8:50am 1.3ft 8s 4s 7 11 mph 1011.1mb 86f 85f
7:50am 1.3ft 8s 4s 9 11 mph 1010.6mb 86f 85f
6:50am 1.3ft 8s 5s 9 11 mph 1010.2mb 86f 84f
5:50am 1.3ft 4s 5s 7 9 mph 1009.9mb 86f 84f
4:50am 1.3ft 8s 4s 7 9 mph 1009.4mb 86f 84f
3:50am 1.3ft 4s 4s 7 9 mph 1009.5mb 86f 84f
2:50am 1.3ft 9s 4s 2 4 mph 1010mb 86f 84f
1:50am 1.3ft 4s 4s 4 11 mph 1010.4mb 86f 84f
12:50am 1.6ft 4s 4s 2 4 mph 1010.3mb 86f 85f
Tue 08/26 11:50pm 1.6ft 4s 4s  -  mph 1010.3mb 86f 85f
10:50pm 1.6ft 4s 4s  -  2 mph 1010.7mb 86f 85f
9:50pm 1.6ft 3s 4s 2 4 mph 1010.7mb 86f 85f
8:50pm 1.3ft 4s 4s 4
mph
1010.4mb 86f 85f
7:50pm 1.6ft 3s 3s 7 9 mph 1009.5mb 86f 86f
6:50pm 1.6ft 3s 3s 7 9 mph 1008.8mb 86f 84f
5:50pm 1.6ft 3s 3s 9 11 mph 1008.6mb 86f 85f
4:50pm 1.3ft 3s 3s 11 13 mph 1008.6mb 86f 86f
3:50pm 1.6ft 3s 3s 11 16 mph 1008.8mb 87f 86f
2:50pm 1.6ft 5s 3s 11 13 mph 1009.1mb 87f 85f
1:50pm 1.3ft 6s 3s 11 16 mph 1009.7mb 86f 85f
12:50pm 1.3ft 5s 4s 9 11 mph 1010.3mb 87f 86f
11:50am 1.3ft 4s 4s 11 13 mph 1010.4mb 86f 86f
10:50am 1.3ft 4s 4s 11
mph
1010.6mb 86f 85f
9:50am 1.3ft 4s 4s 9 11 mph 1010.1mb 86f 85f
8:50am 1.3ft 4s 4s 11 13 mph 1009.5mb 86f 85f
7:50am 1.3ft 4s 4s 9 11 mph 1009.4mb 86f 85f
6:50am 1.6ft 4s 4s 9
mph
1008.7mb 86f 85f
5:50am 1.3ft 4s 4s 9 11 mph 1008.3mb 86f 85f
4:50am 1.6ft 3s 4s 7 9 mph 1008.1mb 86f 85f
3:50am 1.3ft 4s 4s 7 9 mph 1007.8mb 86f 85f
2:50am 1.3ft 5s 4s 7 9 mph 1008.1mb 86f 85f
1:50am 1.3ft 5s 4s 7 9 mph 1008.4mb 86f 85f
12:50am 1ft 5s 4s 4 7 mph 1008.8mb 86f 85f
Mon 08/25 11:50pm 1ft 5s 4s 7
mph
1009.2mb 86f 85f
10:50pm 1ft 6s 4s 4 7 mph 1009.3mb 86f 85f
9:50pm 1ft 5s 4s 9 11 mph 1009mb 86f 85f
8:50pm 1.3ft 6s 4s 9
mph
1008.5mb 86f 85f
7:50pm 1.3ft 6s 4s 9
mph
1007.8mb 86f 86f
6:50pm 1.3ft 6s 4s 9
mph
1007.6mb 86f 86f
5:50pm 1.3ft 5s 4s 9 11 mph 1007.6mb 86f 86f
4:50pm 1.3ft 6s 4s 9 11 mph 1007.5mb 86f 86f
3:50pm 1.6ft 7s 4s 9 11 mph 1007.6mb 86f 86f
2:50pm 1.6ft 5s 4s 9 11 mph 1007.8mb 86f 86f
1:50pm 1.6ft 5s 4s 9 11 mph 1008.3mb 87f 85f
12:50pm 1.6ft 7s 4s 9 11 mph 1009.2mb 86f 85f
11:50am 2ft 6s 4s 9 11 mph 1009.4mb 86f 85f
10:50am 1.6ft 6s 4s 9 11 mph 1009.7mb 86f 85f
9:50am 1.6ft 5s 4s 9 13 mph 1009.4mb 86f 85f
8:50am 1.6ft 7s 4s 9 11 mph 1009.1mb 86f 85f
7:50am 1.6ft 6s 4s 11
mph
1008.8mb 86f 85f
6:50am 2ft 6s 4s 11 13 mph 1008.1mb 86f 85f
5:50am 2ft 6s 4s 9 11 mph 1008mb 86f 84f
4:50am 2ft 6s 4s 9 11 mph 1008.1mb 86f 85f
3:50am 1.6ft 6s 4s 9 11 mph 1008.2mb 86f 85f
2:50am 2ft 6s 4s 9
mph
1008.8mb 86f 85f
1:50am 2ft 6s 4s 9 11 mph 1009.1mb 86f 85f
12:50am 2ft 6s 4s 9
mph
1009.9mb 86f 85f
Sun 08/24 11:50pm 2.5ft 6s 4s 9
mph
1010.2mb 86f 85f